FW6490 Weather Reports


time (UTC)temp
F
wind
direction
speed
knots
gust
knots
rain 1hr
in
rain 24hr
in
rain mn
in
humidity
%
barometer
mb
20260503212016 66 355 3.5 7.8 0.00 0.00 0.00 56 1008.1
20260503211011 66 28 2.6 8.7 0.00 0.00 0.00 58 1008.1
20260503210512 66 33 2.6 7.0 0.00 0.00 0.00 58 1008.1
20260503210011 65 17 2.6 7.0 0.00 0.00 0.00 59 1008.1
20260503205508 65 275 3.5 7.0 0.00 0.00 0.00 58 1008.3
20260503204504 65 309 3.5 6.1 0.00 0.00 0.00 57 1008.3
20260503203456 65 327 3.5 9.6 0.00 0.00 0.00 58 1008.5
20260503202957 65 317 3.5 9.6 0.00 0.00 0.00 57 1008.5
20260503202456 66 330 2.6 6.1 0.00 0.00 0.00 59 1008.6
20260503201958 65 313 3.5 7.8 0.00 0.00 0.00 59 1008.6
20260503201459 65 311 3.5 7.8 0.00 0.00 0.00 59 1008.6
20260503200955 66 44 3.5 7.0 0.00 0.00 0.00 58 1008.5
20260503200452 67 327 2.6 6.1 0.00 0.00 0.00 57 1008.5
20260503195952 67 327 2.6 7.0 0.00 0.00 0.00 55 1008.5
20260503194951 67 330 2.6 7.0 0.00 0.00 0.00 56 1008.6
20260503194449 67 315 4.3 7.0 0.00 0.00 0.00 54 1008.6
20260503193944 67 259 3.5 7.8 0.00 0.00 0.00 54 1008.6
20260503193442 68 318 2.6 7.8 0.00 0.00 0.00 54 1008.6
20260503192946 68 329 2.6 6.1 0.00 0.00 0.00 55 1008.6
20260503192438 67 345 2.6 5.2 0.00 0.00 0.00 56 1008.9
20260503191937 66 38 2.6 7.0 0.00 0.00 0.00 57 1008.9
20260503191433 66 337 2.6 7.0 0.00 0.00 0.00 59 1008.9
20260503190929 66 333 2.6 7.8 0.00 0.00 0.00 59 1008.9
20260503190427 66 5 3.5 7.8 0.00 0.00 0.00 59 1008.9
20260503185925 66 322 3.5 7.0 0.00 0.00 0.00 57 1008.9
20260503185425 67 327 2.6 6.1 0.00 0.00 0.00 57 1008.9
20260503184919 67 339 2.6 7.8 0.00 0.00 0.00 56 1008.9
20260503184419 67 10 2.6 7.8 0.00 0.00 0.00 57 1008.9
20260503183922 66 17 2.6 5.2 0.00 0.00 0.00 58 1009.1
20260503183420 65 321 2.6 5.2 0.00 0.00 0.00 58 1009.1
20260503182913 65 257 2.6 5.2 0.00 0.00 0.00 59 1009.1
20260503182410 65 280 1.7 5.2 0.00 0.00 0.00 61 1009.2
20260503181910 65 290 1.7 5.2 0.00 0.00 0.00 63 1009.2
20260503181409 65 290 1.7 5.2 0.00 0.00 0.00 62 1009.2
20260503180909 65 289 1.7 5.2 0.00 0.00 0.00 64 1009.2
20260503175908 63 279 1.7 6.1 0.00 0.00 0.00 68 1009.1
20260503175408 63 313 1.7 5.2 0.00 0.00 0.00 67 1009.1
20260503174907 64 313 1.7 5.2 0.00 0.00 0.00 65 1009.1
20260503174410 63 289 1.7 4.3 0.00 0.00 0.00 68 1009.1
20260503173901 63 288 1.7 6.1 0.00 0.00 0.00 67 1009.1
20260503173401 63 355 2.6 6.1 0.00 0.00 0.00 70 1009.1
20260503172857 62 54 2.6 7.0 0.00 0.00 0.00 73 1009.1
20260503172357 62 338 2.6 7.0 0.00 0.00 0.00 73 1009.1
20260503171857 61 325 2.6 5.2 0.00 0.00 0.00 74 1009.1
20260503171356 61 327 2.6 6.1 0.00 0.00 0.00 76 1009.0
20260503170356 60 320 1.7 5.2 0.00 0.00 0.00 80 1009.0
20260503150328 56 61 0.9 2.6 0.00 0.00 0.00 85 1008.3
20260503131251 53 293 0.0 0.9 0.00 0.00 0.00 86 1007.3
20260503120221 54 293 0.0 0.9 0.00 0.00 0.00 84 1006.8
20260503110657 54 293 0.9 2.6 0.00 0.00 0.00 82 1006.9
20260503090126 55 294 0.0 0.0 0.00 0.00 0.00 84 1007.0
20260503081111 56 294 0.0 0.0 0.00 0.00 0.00 84 1007.7
20260503080609 56 294 0.0 0.0 0.00 0.00 0.00 84 1007.7
20260503080105 56 294 0.0 0.9 0.00 0.00 0.00 84 1007.7
20260503072548 55 294 0.9 4.3 0.00 0.00 0.00 85 1007.5
20260503072047 55 294 0.9 4.3 0.00 0.00 0.00 86 1007.5
20260503071545 55 294 0.9 2.6 0.00 0.00 0.00 86 1007.5
20260503071045 55 294 0.9 2.6 0.00 0.00 0.00 86 1007.4
20260503070542 55 294 0.9 2.6 0.00 0.00 0.00 86 1007.4
20260503055022 56 294 0.9 3.5 0.00 0.00 0.00 86 1007.0
20260503054515 56 294 0.9 4.3 0.00 0.00 0.00 87 1007.0
20260503054016 56 294 1.7 4.3 0.00 0.00 0.00 87 1007.0
20260503053514 56 257 1.7 3.5 0.00 0.00 0.00 87 1007.0
20260503053015 56 257 1.7 5.2 0.00 0.00 0.00 87 1007.0
20260503052010 55 276 1.7 5.2 0.00 0.00 0.00 87 1006.9
20260503051009 55 274 1.7 2.6 0.00 0.00 0.00 87 1006.9
20260503050007 55 274 0.0 2.6 0.00 0.00 0.00 87 1006.9
20260503045507 55 274 0.0 2.6 0.00 0.00 0.00 87 1006.8
20260503045003 55 274 0.9 2.6 0.00 0.00 0.00 87 1006.8
20260503044457 55 274 0.9 2.6 0.00 0.00 0.00 87 1006.9
20260503043956 55 274 0.9 2.6 0.00 0.00 0.00 87 1006.8
20260503042950 55 274 0.0 1.7 0.00 0.00 0.00 87 1006.8
20260503042449 55 274 0.0 1.7 0.00 0.00 0.00 87 1006.7
20260503041948 55 274 0.0 4.3 0.00 0.00 0.00 87 1006.7
20260503041445 55 274 0.9 4.3 0.00 0.00 0.00 87 1006.7
20260503040941 55 271 0.9 3.5 0.00 0.00 0.00 87 1006.6
20260503040441 55 271 0.9 3.5 0.00 0.00 0.00 87 1006.6
20260503035936 56 271 0.9 2.6 0.00 0.00 0.00 86 1006.6
20260503034935 56 271 0.0 2.6 0.00 0.00 0.00 87 1006.5
20260503034436 56 271 0.0 2.6 0.00 0.00 0.00 87 1006.5
20260503033428 56 271 0.0 1.7 0.00 0.00 0.00 87 1006.5
20260503032426 55 271 0.0 1.7 0.00 0.00 0.00 86 1006.4
20260503031423 55 271 0.9 4.3 0.00 0.00 0.00 85 1006.4
20260503030922 56 271 0.9 4.3 0.00 0.00 0.00 85 1006.3
20260503030416 56 271 0.9 3.5 0.00 0.00 0.00 84 1006.3
20260503025415 56 271 1.7 6.1 0.00 0.00 0.00 83 1006.1
20260503024914 56 271 2.6 6.1 0.00 0.00 0.00 83 1006.1
20260503024410 57 279 2.6 6.1 0.00 0.00 0.00 81 1006.1
20260503023912 57 312 1.7 6.1 0.00 0.00 0.00 80 1005.9
20260503023408 58 317 1.7 4.3 0.00 0.00 0.00 80 1005.9
20260503022913 58 316 1.7 5.2 0.00 0.00 0.00 79 1005.9
20260503022409 59 316 1.7 5.2 0.00 0.00 0.00 78 1006.0
20260503021906 59 316 1.7 5.2 0.00 0.00 0.00 78 1006.0
20260503021405 60 315 1.7 4.3 0.00 0.00 0.00 77 1006.0
20260503020901 60 315 2.6 6.1 0.00 0.00 0.00 76 1006.0
20260503020359 60 312 2.6 6.1 0.00 0.00 0.00 75 1006.0
20260503015856 61 296 2.6 6.1 0.00 0.00 0.00 74 1005.9
20260503015355 61 322 2.6 7.0 0.00 0.00 0.00 73 1005.9
20260503014852 62 313 3.5 7.0 0.00 0.00 0.00 72 1005.9
20260503013848 62 332 2.6 7.0 0.00 0.00 0.00 71 1006.0
20260503012842 62 298 2.6 7.8 0.00 0.00 0.00 71 1006.1
20260503012338 63 287 2.6 6.1 0.00 0.00 0.00 70 1006.1
20260503011838 64 278 2.6 6.1 0.00 0.00 0.00 70 1006.1
20260503011333 65 277 2.6 5.2 0.00 0.00 0.00 68 1006.1
20260503010829 65 314 2.6 7.0 0.00 0.00 0.00 68 1006.1
20260503005824 66 295 2.6 7.0 0.00 0.00 0.00 66 1006.1
20260503005320 66 319 2.6 7.0 0.00 0.00 0.00 65 1006.1
20260503004821 66 321 2.6 7.0 0.00 0.00 0.00 65 1006.1
20260503004322 67 350 2.6 7.0 0.00 0.00 0.00 65 1006.2
20260503003820 67 329 2.6 6.1 0.00 0.00 0.00 66 1006.2
20260503001813 68 343 2.6 7.0 0.00 0.00 0.00 63 1006.2
20260503001309 68 327 2.6 6.1 0.00 0.00 0.00 63 1006.1
20260503000812 68 355 2.6 5.2 0.00 0.00 0.00 64 1006.1
20260503000307 68 339 2.6 5.2 0.00 0.00 0.00 64 1006.1
20260502235804 68 330 2.6 5.2 0.00 0.00 0.00 65 1006.2
20260502235259 68 284 2.6 6.1 0.00 0.00 0.00 65 1006.2
20260502234801 68 288 2.6 6.1 0.00 0.00 0.00 63 1006.2
20260502234259 69 22 2.6 6.1 0.00 0.00 0.00 63 1006.4
20260502233256 69 338 2.6 7.0 0.00 0.00 0.00 63 1006.4
20260502232757 69 317 2.6 5.2 0.00 0.00 0.00 63 1006.5
20260502232255 69 355 2.6 7.0 0.00 0.00 0.00 63 1006.5
20260502231800 69 5 2.6 7.0 0.00 0.00 0.00 64 1006.5
20260502231251 69 335 2.6 8.7 0.00 0.00 0.00 64 1006.5
20260502230752 69 335 2.6 8.7 0.00 0.00 0.00 64 1006.5
20260502230249 69 346 2.6 7.0 0.00 0.00 0.00 64 1006.5
20260502225749 69 313 2.6 7.8 0.00 0.00 0.00 65 1006.8
20260502224747 68 270 2.6 7.0 0.00 0.00 0.00 66 1006.8
20260502224248 69 331 2.6 6.1 0.00 0.00 0.00 65 1007.0
20260502223755 69 332 2.6 5.2 0.00 0.00 0.00 64 1007.0
20260502223246 69 332 2.6 5.2 0.00 0.00 0.00 63 1007.0
20260502222744 69 333 2.6 7.0 0.00 0.00 0.00 64 1007.4
20260502222240 69 344 1.7 7.0 0.00 0.00 0.00 65 1007.4
20260502221743 68 284 2.6 6.1 0.00 0.00 0.00 67 1007.4
20260502221237 67 284 2.6 7.0 0.00 0.00 0.00 68 1007.5
20260502220739 68 285 1.7 5.2 0.00 0.00 0.00 66 1007.5
20260502220236 68 286 0.9 4.3 0.00 0.00 0.00 66 1007.5
20260502215742 68 286 1.7 4.3 0.00 0.00 0.00 67 1007.9
20260502215237 67 286 1.7 4.3 0.00 0.00 0.00 69 1007.9
20260502214735 67 284 0.9 4.3 0.00 0.00 0.00 69 1007.9
20260502213732 67 284 0.9 3.5 0.00 0.00 0.00 69 1008.1
20260502213230 67 284 1.7 3.5 0.00 0.00 0.00 69 1008.1